User: anonymous
Location: Unspecified
(0.0000°N, 0.0000°E)
Time: 00:28:05
(UTC+02:00)
Language:

Cosmos 1953 Rocket - Orbit

View from above orbital plane
View from above orbital plane
View from above satellite
View from above satellite

Ground track
Ground track

The orbit data is extracted from the following two-line orbital elements,

1 19211U 88050B   14213.12165832  .00000234  00000-0  26110-4 0  2989
2 19211 082.5269 105.1760 0021271 343.5580 128.6216 14.82424543411031
Epoch (UTC): 01 August 2014 02:55:11
Eccentricity: 0.0021271
inclination: 82.5269°
perigee height: 607 km
apogee height: 636 km
right ascension of ascending node: 105.1760°
argument of perigee: 343.5580°
revolutions per day: 14.82424543
mean anomaly at epoch: 128.6216°
orbit number at epoch: 41103

The dashed part of the orbit path shows where the satellite is in the earth's shadow,  

DLR